Weather History for Alexandria, Egypt

Change the Weather History Date:

Tuesday, December 25, 2012

  Actual Average Record
Temperature  
Mean Temperature 60 °F -  
Max Temperature 68 °F 63 °F 73 °F (2013)
Min Temperature 51 °F 47 °F 41 °F (2003)
Degree Days  
Heating Degree Days 6    
Growing Degree Days 10 (Base 50)    
Moisture  
Dew Point 53 °F    
Average Humidity 70    
Maximum Humidity 94    
Minimum Humidity 51    
Precipitation  
Precipitation 0.00 in 0.07 in - ()
Sea Level Pressure  
Sea Level Pressure 30.18 in    
Wind  
Wind Speed 6 mph ()    
Max Wind Speed 12 mph    
Max Gust Speed -    
Visibility 6.2 miles    
Events      
Averages and records for this station are not official NWS values.
T = Trace of Precipitation, MM = Missing Value Source: Averaged Metar Reports

Daily Weather History Graph

Daily Weather History Graph

Search for Another Location

Airport:

Trip Planner

Search our weather history database for the weather conditions in past years. The results will help you decide how hot, cold, wet, or windy it might be!

Date:

Astronomy

Dec. 25, 2012 Rise Set
Actual Time 6:56 AM EET 5:04 PM EET
Civil Twilight 6:29 AM EET 5:31 PM EET
Nautical Twilight 5:59 AM EET 6:01 PM EET
Astronomical Twilight 5:30 AM EET 6:30 PM EET
Moon 2:55 PM EET (12/25) 4:14 AM EET (12/25)
Length of Visible Light 11h 01m
Length of Day
10h 07m
Waxing Gibbous, 92% of the Moon is Illuminated
Dec 25
Waxing Gibbous
Dec 28
Full
Jan 5
Last Quarter
Jan 11
New
Jan 19
First Quarter

Hourly Weather History & Observations

Time (EET) Temp. Dew Point Humidity Pressure Visibility Wind Dir Wind Speed Gust Speed Precip Events Conditions
12:00 AM 53.6 °F 50.0 °F 88% 30.09 in - SSW 3.5 mph - N/A   Clear
1:00 AM 51.8 °F 48.2 °F 88% 30.09 in - WSW 5.8 mph - N/A   Clear
2:00 AM 52 °F 49 °F 87% 30.09 in 6 mi SW 4.6 mph - -  
2:00 AM 51.8 °F 50.0 °F 94% 30.09 in - SW 4.6 mph - N/A   Clear
8:00 AM 63 °F 54 °F 64% 30.14 in 6 mi North 8.1 mph - -   Mostly Cloudy
8:00 AM 62.6 °F 53.6 °F 72% 30.12 in 6.2 mi North 8.1 mph - N/A   Scattered Clouds
9:00 AM 66.2 °F 53.6 °F 64% 30.18 in 6.2 mi North 9.2 mph - N/A   Scattered Clouds
10:00 AM 66.2 °F 53.6 °F 64% 30.18 in 6.2 mi North 11.5 mph - N/A   Scattered Clouds
11:00 AM 68.0 °F 53.6 °F 60% 30.18 in 6.2 mi NNE 9.2 mph - N/A   Partly Cloudy
12:00 PM 68.0 °F 53.6 °F 60% 30.18 in 6.2 mi NNE 8.1 mph - N/A   Partly Cloudy
1:00 PM 68.0 °F 53.6 °F 60% 30.15 in 6.2 mi North 9.2 mph - N/A   Partly Cloudy
2:00 PM 68 °F 54 °F 51% 30.17 in 6 mi NNW 11.5 mph - -   Scattered Clouds
2:00 PM 68.0 °F 53.6 °F 60% 30.15 in 6.2 mi NNW 11.5 mph - N/A   Partly Cloudy
3:00 PM 66.2 °F 53.6 °F 64% 30.15 in 6.2 mi North 10.4 mph - N/A   Partly Cloudy
4:00 PM 66.2 °F 53.6 °F 64% 30.18 in 6.2 mi North 6.9 mph - N/A   Partly Cloudy
5:00 PM 62.6 °F 51.8 °F 68% 30.21 in 6.2 mi North 4.6 mph - N/A   Partly Cloudy
6:00 PM 62.6 °F 51.8 °F 68% 30.21 in 6.2 mi North 4.6 mph - N/A   Partly Cloudy
7:00 PM 62.6 °F 51.8 °F 68% 30.24 in 6.2 mi North 4.6 mph - N/A   Partly Cloudy
8:00 PM 61 °F 54 °F 71% 30.25 in 6 mi North 2.3 mph - -  
8:00 PM 60.8 °F 53.6 °F 77% 30.24 in - North 2.3 mph - N/A   Clear
9:00 PM 62.6 °F 53.6 °F 72% 30.24 in - NNW 6.9 mph - N/A   Clear
10:00 PM 64.4 °F 53.6 °F 68% 30.24 in 6.2 mi NNW 8.1 mph - N/A   Scattered Clouds
11:00 PM 60.8 °F 53.6 °F 77% 30.27 in 6.2 mi North 8.1 mph - N/A   Scattered Clouds